N5GAH-13 Weather Reports


time (UTC)temp
F
wind
direction
speed
knots
gust
knots
rain 1hr
in
rain 24hr
in
rain mn
in
humidity
%
barometer
mb
20260906220034 99 145 6.1 13.9 0.00 0.00 0.00 31 1019.4
20260906213034 98 133 5.2 13.0 0.00 0.00 0.00 32 1019.9
20260906210034 100 145 4.3 11.3 0.00 0.00 0.00 32 1020.4
20260906203034 98 130 6.1 13.9 0.00 0.00 0.00 34 1020.9
20260906200034 98 96 6.1 14.8 0.00 0.00 0.00 34 1021.2
20260906193034 98 124 6.1 14.8 0.00 0.00 0.00 34 1021.4
20260906190034 97 128 7.0 13.9 0.00 0.00 0.00 36 1021.8
20260906183034 96 123 5.2 13.0 0.00 0.00 0.00 37 1021.9
20260906180034 96 107 6.1 13.9 0.00 0.00 0.00 38 1022.4
20260906163034 93 151 3.5 8.7 0.00 0.00 0.00 44 1022.8
20260906160034 91 155 3.5 7.8 0.00 0.00 0.00 49 1022.9
20260906153034 88 176 3.5 7.8 0.00 0.00 0.00 54 1022.7
20260906150034 84 156 2.6 7.0 0.00 0.00 0.00 60 1022.4
20260906143034 80 167 2.6 7.0 0.00 0.00 0.00 67 1022.4
20260906140035 75 142 2.6 6.1 0.00 0.00 0.00 73 1022.1
20260906133036 72 114 3.5 7.0 0.00 0.00 0.00 78 1021.9
20260906130034 71 139 1.7 3.5 0.00 0.00 0.00 79 1021.4
20260906123034 71 135 1.7 4.3 0.00 0.00 0.00 78 1021.2
20260906120034 71 136 1.7 4.3 0.00 0.00 0.00 76 1021.1
20260906113034 72 132 1.7 2.6 0.00 0.00 0.00 73 1021.1
20260906110034 73 139 0.9 2.6 0.00 0.00 0.00 71 1021.1
20260906103034 74 160 0.0 1.7 0.00 0.00 0.00 70 1020.7
20260906100034 75 170 0.9 3.5 0.00 0.00 0.00 70 1020.4
20260906093034 75 195 1.7 3.5 0.00 0.00 0.00 69 1020.5
20260906083034 77 198 2.6 4.3 0.00 0.00 0.00 66 1020.6
20260906070034 79 178 3.5 7.8 0.00 0.00 0.00 59 1020.8
20260906063034 80 163 2.6 7.0 0.00 0.00 0.00 57 1020.8
20260906053034 81 145 3.5 6.1 0.00 0.00 0.00 52 1021.2
20260906050034 82 137 4.3 7.8 0.00 0.00 0.00 50 1021.2
20260906043034 83 146 3.5 8.7 0.00 0.00 0.00 48 1021.0
20260906040034 84 142 5.2 10.4 0.00 0.00 0.00 47 1020.9
20260906033034 85 129 6.1 10.4 0.00 0.00 0.00 46 1020.6
20260906030034 86 127 5.2 10.4 0.00 0.00 0.00 44 1020.2
20260906023034 87 128 4.3 7.8 0.00 0.00 0.00 42 1019.8
20260906020034 89 121 4.3 8.7 0.00 0.00 0.00 41 1019.1
20260906013034 91 121 5.2 8.7 0.00 0.00 0.00 39 1018.7
20260906010034 93 115 6.1 11.3 0.00 0.00 0.00 37 1018.4
20260906003034 95 110 5.2 10.4 0.00 0.00 0.00 35 1018.4
20260906000034 96 98 5.2 11.3 0.00 0.00 0.00 34 1018.2
20260905233034 98 124 5.2 10.4 0.00 0.00 0.00 33 1017.9
20260905223034 101 115 5.2 10.4 0.00 0.00 0.00 30 1018.0